Location: Schommer Observatory
(40.5200°N, 74.4500°W)
Time: 11:07:45
(UTC-04:00)

N. Korean satellite - Pass Details

Date: 16 October 2017
Orbit: 459 x 517 km, 97.2° (Epoch: 22 October)

Event Time Altitude Azimuth Distance (km) Brightness Sun altitude
Rises 18:35:54 0° 152° (SSE) 2,539 10.0 -4.6°
Reaches altitude 10° 18:38:02 10° 145° (SE) 1,654 9.0 -5.0°
Maximum altitude 18:41:23 41° 74° (ENE) 701 6.9 -5.6°
Drops below altitude 10° 18:44:43 10° 3° (N) 1,639 9.1 -6.3°
Sets 18:46:49 0° 356° (N) 2,513 10.2 -6.7°
